sat.trackr.live / text

‹ back to catalog

STARLINK-32833

NORAD 62873 · 2025-022V

PAYLOAD ACTIVE UNKNOWN

§ Identity

Operator
Country
US
Launch date
2025-02-01
Launch site
AFWTR
Launch vehicle
Mass (kg)
RCS (m²)

Purposes: comms

External: N2YO · Heavens-Above · Gunter

§ Orbital elements

Epoch: 2026-05-25T02:57:44.390880Z

Period
94.11 min
Inclination
53.1567°
Eccentricity
0.0000959
Mean motion
15.30203764 rev/d
Perigee alt
474.5 km
Apogee alt
475.9 km
Semi-major
6,853.3 km
B*
4.1236e-4
RAAN
134.5066°
Arg perigee
74.2188°
Mean anomaly
285.8918°
Rev number
7,360

§ Raw data

STARLINK-328331 62873U 25022V   26145.12343045  .00011875  00000+0  41236-3 0  99972 62873  53.1567 134.5066 0000959  74.2188 285.8918 15.30203764 73601

JSON: /api/v1/satellites/62873 · /tle

For live sub-satellite position, see the globe view (requires WebGL).

§ Visibility from observer

Set your observer location to see the next 7 days of passes ≥ 10°. The values pass through the URL so the page stays shareable.

No JS? Fill the form by hand. The geolocation button needs JavaScript.